SCP
0 0 0 0 0 0 0 0 0 0 0 0 0 0 0 0 0 0 0 0 0 0
0 0 0 0 0 0 0 0 0 0 0 0 0 0 0 0 0 0 0 0 0 0
0 0 0 0 0 0 0 0 0 0 0 0 0 0 0 0 0 0 0 0 0 0
0 0 0 0 0 0 0 0 0 0 0 0 0 0 0 0 0 0 0 0 0 0
0 0 0 0 0 0 0 0 0 0 0 0 0 0 0 0 0 0 0 0 0 0
0 0 0 0 0 0 0 0 0 0 0 0 0 0 0 0 0 0 0 0 0 0
0 0 0 0 0 0 0 0 0 0 0 0 0 0 0 0 0 0 0 0 0 0
0 0 0 0 0 0 0 0 0 0 0 0 0 0 0 0 0 0 0 0 0 0
0 0 0 0 0 0 0 0 0 0 0 0 0 0 0 0 0 0 0 0 0 0
0 0 0 0 0 0 0 0 0 0 0 0 0 0 0 0 0 0 0 0 0 0
0 0 0 0 0 0 0 0 0 0 0 0 0 0 0 0 0 0 0 0 0 0
0 0 0 0 0 0 0 0 0 0 0 0 0 0 0 0 0 0 0 0 0 0
0 0 0 0 0 0 0 0 0 0 0 0 0 0 0 0 0 0 0 0 0 0
0 0 0 0 0 0 0 0 0 0 0 0 0 0 0 0 0 0 0 0 0 0
Wind_Speed_500mb
11 10 12 14 17 22 27 33 39 43 45 46 50 52 50 49 45 41 38 39 38 42
11 10 12 15 17 22 29 35 40 43 44 44 45 45 44 44 44 44 44 44 45 49
12 12 12 14 20 26 30 34 38 40 43 45 45 44 42 42 41 42 44 46 48 48
12 10 13 18 22 25 29 33 35 38 42 45 47 45 45 44 43 44 46 47 49 54
10 10 14 17 20 24 28 31 35 39 42 44 44 43 44 45 42 44 47 48 53 57
8 10 12 16 20 24 27 31 36 41 46 47 45 46 40 39 39 45 49 51 55 58
10 10 12 15 19 23 27 33 38 43 47 47 41 38 34 31 36 43 46 50 57 61
14 12 12 15 19 24 28 33 38 42 46 47 40 35 36 35 38 46 51 53 58 59
14 13 13 16 19 24 27 33 38 41 46 47 41 34 35 39 46 48 53 60 57 53
13 11 13 17 21 25 28 32 37 40 44 46 44 39 37 41 45 47 53 56 52 51
12 10 14 18 22 27 30 33 36 39 42 45 44 43 41 42 44 44 48 48 43 47
11 12 18 21 25 28 31 34 37 40 43 44 44 45 45 43 43 44 44 40 36 41
12 13 18 23 26 29 33 37 40 41 43 43 45 45 46 44 43 43 43 37 33 33
18 19 21 26 29 33 36 40 42 43 43 44 43 45 46 46 45 43 40 42 37 32
Wind_Direction_500mb
231 261 285 300 312 322 328 333 334 332 327 323 321 321 321 318 317 312 303 295 291 289
239 267 290 304 318 331 338 337 332 328 326 324 324 324 322 322 325 321 315 307 298 293
248 263 285 321 338 341 336 331 327 326 325 321 316 312 308 306 307 305 307 304 301 300
242 280 321 336 335 333 331 329 329 329 324 317 311 305 298 297 300 301 304 306 304 304
263 305 325 327 329 330 331 333 333 330 326 324 321 314 301 296 298 300 300 302 302 302
284 305 313 319 324 329 332 334 337 336 336 335 333 331 322 302 297 299 303 303 303 302
264 282 296 309 322 330 334 338 340 340 341 339 334 333 331 321 312 310 309 308 305 306
247 261 283 304 321 331 335 336 337 342 344 342 336 333 330 325 320 315 315 314 313 309
238 258 280 302 317 325 330 332 336 340 342 344 342 331 324 320 318 321 322 321 319 315
235 259 287 303 313 320 324 329 332 337 342 344 342 330 320 316 317 320 328 327 327 332
231 263 286 303 312 316 319 326 330 335 338 340 341 335 323 317 319 322 330 333 332 334
234 280 300 307 310 313 319 322 326 331 333 335 340 338 333 321 320 324 332 338 341 334
248 289 310 314 315 317 318 320 322 326 328 330 335 339 339 329 320 324 331 339 336 329
262 284 301 313 317 315 316 317 318 319 322 326 330 335 339 336 324 319 330 332 336 326
Wind_Speed_850mb
11 10 12 14 17 22 27 33 39 43 45 46 50 52 50 49 45 41 38 39 38 42
11 10 12 15 17 22 29 35 40 43 44 44 45 45 44 44 44 44 44 44 45 49
12 12 12 14 20 26 30 34 38 40 43 45 45 44 42 42 41 42 44 46 48 48
12 10 13 18 22 25 29 33 35 38 42 45 47 45 45 44 43 44 46 47 49 54
10 10 14 17 20 24 28 31 35 39 42 44 44 43 44 45 42 44 47 48 53 57
8 10 12 16 20 24 27 31 36 41 46 47 45 46 40 39 39 45 49 51 55 58
10 10 12 15 19 23 27 33 38 43 47 47 41 38 34 31 36 43 46 50 57 61
14 12 12 15 19 24 28 33 38 42 46 47 40 35 36 35 38 46 51 53 58 59
14 13 13 16 19 24 27 33 38 41 46 47 41 34 35 39 46 48 53 60 57 53
13 11 13 17 21 25 28 32 37 40 44 46 44 39 37 41 45 47 53 56 52 51
12 10 14 18 22 27 30 33 36 39 42 45 44 43 41 42 44 44 48 48 43 47
11 12 18 21 25 28 31 34 37 40 43 44 44 45 45 43 43 44 44 40 36 41
12 13 18 23 26 29 33 37 40 41 43 43 45 45 46 44 43 43 43 37 33 33
18 19 21 26 29 33 36 40 42 43 43 44 43 45 46 46 45 43 40 42 37 32
Wind_Direction_850mb
231 261 285 300 312 322 328 333 334 332 327 323 321 321 321 318 317 312 303 295 291 289
239 267 290 304 318 331 338 337 332 328 326 324 324 324 322 322 325 321 315 307 298 293
248 263 285 321 338 341 336 331 327 326 325 321 316 312 308 306 307 305 307 304 301 300
242 280 321 336 335 333 331 329 329 329 324 317 311 305 298 297 300 301 304 306 304 304
263 305 325 327 329 330 331 333 333 330 326 324 321 314 301 296 298 300 300 302 302 302
284 305 313 319 324 329 332 334 337 336 336 335 333 331 322 302 297 299 303 303 303 302
264 282 296 309 322 330 334 338 340 340 341 339 334 333 331 321 312 310 309 308 305 306
247 261 283 304 321 331 335 336 337 342 344 342 336 333 330 325 320 315 315 314 313 309
238 258 280 302 317 325 330 332 336 340 342 344 342 331 324 320 318 321 322 321 319 315
235 259 287 303 313 320 324 329 332 337 342 344 342 330 320 316 317 320 328 327 327 332
231 263 286 303 312 316 319 326 330 335 338 340 341 335 323 317 319 322 330 333 332 334
234 280 300 307 310 313 319 322 326 331 333 335 340 338 333 321 320 324 332 338 341 334
248 289 310 314 315 317 318 320 322 326 328 330 335 339 339 329 320 324 331 339 336 329
262 284 301 313 317 315 316 317 318 319 322 326 330 335 339 336 324 319 330 332 336 326